Back to catalog

STARLINK-5601

AliveCommunicationsVLEO
NORAD 55744·PAYLOAD·🇺🇸 United States

Launched Mar 3, 2023 from Vandenberg Space Force Base

Loading…

Next Passes (next 24 hours)

TLE

FreshSource: CelesTrak SupGP

Epoch: Sep 14, 2026, 20:42 UTC

1 55744C 23028D   26257.86298611  .00765500  00000+0  62937-1 0  2570
2 55744  70.0000 127.6271 0002976 272.6536  63.2546 14.98683480    13

Track STARLINK-5601 in real time with AllMySat

Download on the App Store